Theta_e
331 337 339 348 352 352 350 352 353 349 350 354 352 353 353 354 355 356 354 350 353 349 351 350 353 354 348 350 349 346 341 340
318 330 336 348 348 349 350 348 352 358 353 350 348 349 350 350 351 355 353 351 353 350 348 349 349 348 345 344 341 339 337 338
323 329 334 349 342 350 350 346 355 355 357 353 348 351 350 350 351 354 354 351 353 353 351 350 349 346 346 344 342 341 340 338
321 324 335 343 350 337 336 347 355 359 358 358 357 362 360 359 356 353 356 356 357 355 356 355 352 352 348 346 344 346 342 341
319 323 331 344 341 335 336 348 352 354 356 358 357 360 358 361 359 364 357 359 360 356 355 353 353 354 359 357 355 354 348 346
318 323 337 346 350 348 351 345 352 355 360 360 359 360 362 358 355 357 359 361 360 361 358 353 355 359 354 352 351 349 348 346
322 327 342 342 340 347 351 355 357 355 359 360 361 363 356 353 345 350 353 350 353 348 349 350 353 352 354 355 352 347 346 347
325 331 339 338 341 347 353 354 360 361 359 361 360 358 362 362 357 357 352 354 348 337 330 340 346 350 351 351 350 350 348 346
325 329 334 337 347 349 349 353 358 357 356 348 348 348 351 354 356 358 356 350 346 335 329 339 346 345 346 343 332 326 335 339
323 328 332 339 344 348 349 351 356 359 355 354 353 350 347 349 353 360 359 357 353 345 347 349 345 343 333 330 327 323 331 331
321 324 330 338 342 347 349 351 352 352 358 353 354 352 351 345 348 349 354 356 357 356 355 352 349 335 330 329 325 322 322 327
323 326 333 338 337 339 339 341 344 343 350 349 352 347 344 341 341 342 343 345 347 346 350 348 346 331 324 326 329 323 329 325
324 327 330 330 333 332 334 335 335 337 337 338 340 339 337 339 339 336 338 340 345 341 339 339 343 336 333 334 328 324 334 333
322 325 327 326 328 328 331 331 332 333 333 333 332 332 332 329 330 329 331 330 332 338 331 334 335 336 337 337 341 339 338 338
319 319 320 323 324 326 327 328 328 331 331 331 331 331 333 333 330 329 327 325 326 327 330 330 328 329 329 330 331 332 333 334
318 319 320 319 321 324 324 326 326 328 328 329 330 331 326 327 327 325 324 323 324 329 327 324 323 323 324 326 325 324 326 327
317 318 319 319 320 323 323 323 325 325 326 328 329 327 327 326 327 328 324 324 321 323 322 322 322 321 321 321 319 321 323 323
316 316 318 320 321 321 324 324 323 324 325 325 322 325 325 325 325 323 323 322 321 320 319 319 319 318 318 318 316 317 318 318
314 315 316 317 319 318 321 320 320 321 322 323 323 323 322 322 321 321 320 320 319 316 316 315 313 312 313 312 312 312 312 312
313 313 314 314 314 315 317 318 317 318 319 320 321 322 321 321 320 319 319 317 316 313 313 311 310 310 310 309 308 308 308 308
Wind_Speed
13 17 15 16 16 12 17 17 14 14 13 9 6 6 7 7 10 9 8 7 6 8 6 7 6 10 6 9 8 6 8 7
17 17 17 16 14 11 18 14 7 3 10 10 9 8 8 8 9 11 8 6 6 7 5 9 9 7 9 7 7 9 10 9
11 12 15 17 14 15 11 17 6 7 3 4 9 8 9 9 10 11 9 7 5 5 5 6 8 8 10 9 8 9 9 10
12 12 5 13 14 19 10 13 5 3 3 4 4 4 1 5 5 8 10 6 4 3 3 3 3 3 5 9 7 6 10 8
10 12 6 18 15 16 18 17 19 13 5 2 1 1 3 2 2 3 8 6 3 6 2 3 4 4 5 5 3 4 3 4
17 15 9 15 18 23 24 21 18 17 10 8 6 5 4 4 7 6 3 5 4 4 5 6 6 4 4 3 4 4 4 4
13 11 13 14 9 11 11 16 17 13 8 8 7 9 8 7 6 7 2 9 7 10 8 11 9 4 4 5 3 8 7 5
9 7 15 11 11 11 8 12 15 10 7 3 1 5 2 2 7 6 7 5 10 9 4 16 17 7 6 7 8 4 3 4
11 12 11 9 9 9 9 8 12 7 7 6 6 6 6 4 5 4 8 7 10 10 8 16 16 8 4 9 7 9 9 11
10 8 6 12 12 11 9 8 6 2 3 2 2 1 1 1 2 1 4 5 13 11 11 11 4 2 8 9 4 3 3 5
11 9 7 12 12 9 10 10 8 7 3 4 3 2 1 1 2 3 5 5 1 6 6 7 3 7 8 6 8 8 5 5
12 11 12 12 11 10 10 10 7 7 8 7 8 5 5 4 4 6 5 7 5 6 4 6 2 4 6 8 8 7 9 6
13 13 13 11 10 9 8 8 8 7 9 10 7 6 4 2 4 7 6 5 2 3 3 2 5 3 4 7 5 9 8 6
14 12 10 10 10 10 8 7 7 7 8 9 9 8 6 5 6 4 4 6 5 7 9 7 6 4 4 4 3 9 10 9
13 12 12 10 10 10 9 8 7 6 7 7 7 6 2 2 3 4 6 5 6 7 7 6 5 5 7 6 6 8 7 8
14 12 10 11 9 8 9 8 7 6 6 6 5 5 5 4 7 5 5 5 5 6 6 8 8 8 7 6 6 7 10 9
14 12 10 11 9 7 6 7 6 5 5 4 4 5 4 4 4 3 4 5 6 7 8 8 8 7 8 7 7 9 9 10
13 11 9 7 10 7 5 5 4 4 4 5 5 3 4 4 4 5 5 6 7 8 9 9 9 9 9 8 8 9 10 9
13 12 10 10 8 8 5 5 4 4 4 3 3 3 4 4 4 5 5 6 7 9 10 10 11 11 11 10 10 11 11 11
12 13 9 9 7 6 7 4 4 5 5 4 4 4 4 5 5 6 6 7 8 9 10 11 11 11 10 10 12 12 13 12
Wind_Direction
237 225 228 169 166 168 150 160 171 185 145 155 168 161 167 175 180 173 206 215 212 201 180 178 185 196 205 202 203 216 220 224
228 244 229 160 92 73 10 3 121 258 133 153 167 170 176 175 187 183 189 222 223 189 190 186 188 188 202 208 204 203 212 219
219 228 262 96 104 74 75 130 298 269 125 160 168 180 177 189 178 183 189 212 230 201 215 198 189 200 193 204 207 196 200 209
198 232 224 117 111 102 97 303 317 295 20 3 102 97 133 167 160 181 193 201 239 213 218 274 256 227 214 203 213 193 192 188
204 235 230 132 140 137 142 176 226 247 175 169 314 133 146 82 291 155 193 202 246 299 257 251 275 270 306 292 220 248 210 194
225 226 166 124 146 160 169 165 191 197 173 175 191 185 78 30 352 330 288 167 224 198 278 271 231 228 223 246 323 318 225 230
218 203 139 149 143 152 187 158 155 187 179 177 183 167 147 155 168 249 287 352 356 351 306 285 281 271 267 265 163 185 268 304
192 186 150 164 161 165 192 148 152 165 156 101 101 82 92 154 185 205 128 137 152 182 333 318 291 294 278 293 306 321 320 307
182 201 159 183 149 123 119 104 148 152 156 169 189 169 182 187 204 201 139 170 177 178 206 208 225 228 295 16 24 14 351 350
172 171 127 81 80 81 79 87 110 151 207 139 73 60 105 175 66 118 266 183 179 194 208 222 225 334 60 33 22 346 325 10
136 110 83 86 69 64 65 62 58 19 18 111 109 97 143 287 335 350 21 358 48 186 236 237 244 80 66 312 316 269 228 213
119 120 95 84 79 65 58 48 51 39 356 57 43 43 40 23 9 31 17 8 36 25 333 281 203 174 199 196 184 221 234 210
112 110 98 93 90 81 74 72 71 56 46 35 79 56 64 357 7 15 353 349 324 329 346 68 64 178 217 223 189 203 233 250
102 101 106 110 122 109 103 93 78 67 68 61 63 57 34 18 16 343 344 4 350 48 24 13 16 10 345 349 262 237 246 250
125 137 141 139 124 119 124 106 94 84 71 66 67 61 358 324 26 14 8 346 340 350 6 4 358 346 324 315 314 298 291 280
156 128 130 118 108 98 104 104 86 78 67 54 52 37 23 354 39 17 338 319 317 348 346 350 338 330 307 298 293 288 293 295
127 132 129 125 109 91 78 88 82 62 70 60 57 45 18 7 3 338 326 343 336 334 333 321 310 300 304 306 299 295 289 290
137 129 118 111 116 108 103 90 83 76 59 55 45 8 8 6 355 349 340 337 337 321 311 315 320 320 319 318 308 305 306 308
140 132 138 150 137 122 102 72 56 61 49 38 29 5 356 356 342 340 336 328 321 321 323 331 332 328 326 324 315 308 305 307
144 134 147 120 90 82 88 50 22 22 17 6 358 357 356 343 335 335 331 330 339 335 326 318 309 301 296 290 287 288 291 292